| time (UTC) | temp C | wind direction | speed KPH | gust KPH | rain 1hr cm | rain 24hr cm | rain mn cm | humidity % | barometer mb |
| 20260906110001 | 22 | 232 | 0.0 | 1.6 | 0.00 | 0.84 | 0.00 | 92 | 1013.4 |
| 20260906104606 | 22 | 94 | 0.0 | 1.6 | 0.00 | 0.84 | 0.00 | 92 | 1013.3 |
| 20260906103058 | 22 | 94 | 0.0 | 0.0 | 0.00 | 0.84 | 0.00 | 92 | 1013.2 |
| 20260906101557 | 22 | 94 | 0.0 | 0.0 | 0.00 | 0.84 | 0.00 | 92 | 1013.0 |
| 20260906100056 | 22 | 94 | 0.0 | 0.0 | 0.00 | 2.54 | 0.00 | 92 | 1012.8 |
| 20260906094555 | 21 | 93 | 0.0 | 0.0 | 0.00 | 2.54 | 0.00 | 92 | 1012.7 |
| 20260906093102 | 21 | 93 | 0.0 | 0.0 | 0.00 | 2.54 | 0.00 | 92 | 1012.6 |
| 20260906091555 | 21 | 94 | 0.0 | 0.0 | 0.00 | 2.54 | 0.00 | 92 | 1012.5 |
| 20260906090106 | 21 | 93 | 0.0 | 0.0 | 0.00 | 2.54 | 0.00 | 91 | 1012.5 |
| 20260906084601 | 22 | 93 | 0.0 | 0.0 | 0.00 | 2.54 | 0.00 | 91 | 1012.6 |
| 20260906083051 | 22 | 93 | 0.0 | 0.0 | 0.00 | 2.54 | 0.00 | 91 | 1012.6 |
| 20260906081554 | 22 | 93 | 0.0 | 0.0 | 0.00 | 2.54 | 0.00 | 91 | 1012.5 |
| 20260906080054 | 22 | 94 | 0.0 | 0.0 | 0.00 | 2.54 | 0.00 | 91 | 1012.5 |
| 20260906074549 | 22 | 93 | 0.0 | 0.0 | 0.00 | 2.54 | 0.00 | 91 | 1012.5 |
| 20260906073056 | 22 | 94 | 0.0 | 0.0 | 0.00 | 2.54 | 0.00 | 91 | 1012.4 |
| 20260906071545 | 22 | 93 | 0.0 | 0.0 | 0.00 | 2.54 | 0.00 | 91 | 1012.4 |
| 20260906070055 | 22 | 93 | 0.0 | 0.0 | 0.00 | 2.54 | 0.00 | 91 | 1012.4 |
| 20260906064543 | 22 | 93 | 0.0 | 0.0 | 0.00 | 2.54 | 0.00 | 91 | 1012.4 |
| 20260906063042 | 22 | 94 | 0.0 | 0.0 | 0.00 | 2.54 | 0.00 | 91 | 1012.4 |
| 20260906061552 | 22 | 93 | 0.0 | 0.0 | 0.00 | 2.54 | 0.00 | 91 | 1012.9 |
| 20260906060039 | 23 | 93 | 0.0 | 0.0 | 0.00 | 2.54 | 0.00 | 91 | 1013.0 |
| 20260906054538 | 23 | 93 | 0.0 | 0.0 | 0.00 | 2.54 | 0.00 | 91 | 1012.8 |
| 20260906053038 | 23 | 94 | 0.0 | 0.0 | 0.00 | 2.54 | 0.00 | 91 | 1012.7 |
| 20260906051533 | 23 | 94 | 0.0 | 0.0 | 0.00 | 2.54 | 0.00 | 91 | 1012.7 |
| 20260906050034 | 23 | 93 | 0.0 | 0.0 | 0.00 | 2.54 | 0.00 | 91 | 1012.8 |
| 20260906044530 | 23 | 93 | 0.0 | 0.0 | 0.00 | 2.54 | 0.00 | 91 | 1012.8 |
| 20260906043038 | 23 | 85 | 0.0 | 1.6 | 0.00 | 2.54 | 0.00 | 91 | 1012.6 |
| 20260906041524 | 23 | 70 | 0.0 | 0.0 | 0.00 | 2.54 | 0.00 | 91 | 1012.2 |
| 20260906040025 | 23 | 70 | 0.0 | 0.0 | 0.00 | 2.54 | 2.54 | 91 | 1012.3 |
| 20260906034525 | 23 | 70 | 0.0 | 0.0 | 0.00 | 2.54 | 2.54 | 91 | 1012.3 |
| 20260906033021 | 23 | 71 | 0.0 | 0.0 | 0.00 | 2.54 | 2.54 | 91 | 1012.1 |
| 20260906031521 | 23 | 70 | 0.0 | 0.0 | 0.00 | 2.54 | 2.54 | 91 | 1012.1 |
| 20260906030021 | 23 | 71 | 0.0 | 1.6 | 0.00 | 2.54 | 2.54 | 91 | 1012.1 |
| 20260906024519 | 23 | 348 | 0.0 | 0.0 | 0.00 | 2.54 | 2.54 | 91 | 1011.9 |
| 20260906023018 | 24 | 348 | 0.0 | 0.0 | 0.00 | 2.54 | 2.54 | 91 | 1012.0 |
| 20260906021518 | 24 | 348 | 0.0 | 0.0 | 0.00 | 2.54 | 2.54 | 91 | 1011.8 |
| 20260906020117 | 25 | 349 | 0.0 | 0.0 | 0.00 | 2.54 | 2.54 | 91 | 1011.7 |
| 20260906014525 | 25 | 349 | 0.0 | 0.0 | 0.00 | 2.54 | 2.54 | 91 | 1011.5 |
| 20260906013016 | 25 | 348 | 0.0 | 0.0 | 0.00 | 2.54 | 2.54 | 90 | 1011.7 |
| 20260906011515 | 25 | 348 | 0.0 | 0.0 | 0.00 | 2.54 | 2.54 | 90 | 1011.1 |
| 20260906010016 | 26 | 348 | 0.0 | 0.0 | 0.00 | 2.54 | 2.54 | 90 | 1011.1 |
| 20260906004514 | 26 | 348 | 0.0 | 0.0 | 0.00 | 2.54 | 2.54 | 90 | 1011.0 |
| 20260906003013 | 26 | 349 | 0.0 | 0.0 | 0.00 | 2.54 | 2.54 | 90 | 1011.1 |
| 20260906001512 | 27 | 348 | 0.0 | 0.0 | 0.00 | 2.54 | 2.54 | 89 | 1011.2 |
| 20260906000012 | 27 | 349 | 0.0 | 0.0 | 0.00 | 2.54 | 2.54 | 89 | 1011.2 |
| 20260905234511 | 27 | 349 | 0.0 | 0.0 | 0.00 | 2.54 | 2.54 | 89 | 1011.5 |
| 20260905233013 | 28 | 348 | 0.0 | 0.0 | 0.00 | 2.54 | 2.54 | 88 | 1011.6 |
| 20260905231514 | 28 | 349 | 0.0 | 0.0 | 0.00 | 2.54 | 2.54 | 87 | 1011.7 |
| 20260905230014 | 28 | 15 | 0.0 | 0.0 | 0.00 | 2.54 | 2.54 | 85 | 1011.3 |
| 20260905224510 | 29 | 15 | 0.0 | 0.0 | 0.00 | 2.54 | 2.54 | 84 | 1011.3 |
| 20260905223009 | 30 | 15 | 0.0 | 0.0 | 0.00 | 2.54 | 2.54 | 83 | 1010.9 |
| 20260905221508 | 30 | 15 | 0.0 | 0.0 | 0.00 | 2.54 | 2.54 | 82 | 1011.1 |
| 20260905220007 | 30 | 15 | 0.0 | 0.0 | 0.00 | 2.54 | 2.54 | 80 | 1011.1 |
| 20260905214507 | 31 | 15 | 0.0 | 0.0 | 0.00 | 2.54 | 2.54 | 79 | 1011.1 |
| 20260905213004 | 31 | 15 | 0.0 | 0.0 | 0.00 | 2.54 | 2.54 | 78 | 1011.2 |
| 20260905211504 | 31 | 15 | 0.0 | 0.0 | 0.00 | 2.54 | 2.54 | 77 | 1011.2 |
| 20260905210003 | 31 | 15 | 0.0 | 0.0 | 0.00 | 2.54 | 2.54 | 72 | 1011.3 |
| 20260905204502 | 31 | 15 | 0.0 | 1.6 | 0.00 | 2.54 | 2.54 | 71 | 1011.5 |
| 20260905203102 | 32 | 15 | 0.0 | 1.6 | 0.00 | 2.54 | 2.54 | 77 | 1011.7 |
| 20260905201558 | 31 | 146 | 0.0 | 1.6 | 0.00 | 2.54 | 2.54 | 69 | 1011.8 |
| 20260905200058 | 32 | 146 | 0.0 | 1.6 | 0.00 | 2.54 | 2.54 | 72 | 1012.0 |
| 20260905194552 | 31 | 147 | 0.0 | 0.0 | 0.00 | 2.54 | 2.54 | 65 | 1012.2 |
| 20260905193050 | 31 | 136 | 0.0 | 3.2 | 0.00 | 2.54 | 2.54 | 72 | 1012.4 |
| 20260905191549 | 31 | 187 | 0.0 | 1.6 | 0.00 | 2.54 | 2.54 | 64 | 1012.7 |
| 20260905190054 | 31 | 130 | 0.0 | 1.6 | 0.00 | 2.54 | 2.54 | 65 | 1012.8 |
| 20260905184556 | 31 | 105 | 0.0 | 6.4 | 0.00 | 2.54 | 2.54 | 67 | 1013.0 |
| 20260905183048 | 31 | 276 | 0.0 | 3.2 | 0.00 | 2.54 | 2.54 | 71 | 1013.1 |
| 20260905181544 | 31 | 229 | 0.0 | 1.6 | 0.00 | 2.54 | 2.54 | 64 | 1013.4 |
| 20260905180041 | 31 | 121 | 0.0 | 1.6 | 0.00 | 2.54 | 2.54 | 67 | 1013.6 |
| 20260905174539 | 30 | 229 | 0.0 | 1.6 | 0.00 | 2.54 | 2.54 | 71 | 1013.6 |
| 20260905173037 | 30 | 213 | 0.0 | 1.6 | 0.00 | 2.54 | 2.54 | 67 | 1013.8 |
| 20260905171538 | 30 | 248 | 0.0 | 1.6 | 0.00 | 2.54 | 2.54 | 69 | 1013.9 |
| 20260905170040 | 30 | 236 | 0.0 | 4.8 | 0.00 | 2.54 | 2.54 | 69 | 1014.1 |
| 20260905164537 | 30 | 108 | 0.0 | 1.6 | 0.00 | 2.54 | 2.54 | 72 | 1014.5 |
| 20260905163030 | 29 | 109 | 0.0 | 1.6 | 0.00 | 2.54 | 2.54 | 68 | 1014.8 |
| 20260905161527 | 28 | 129 | 0.0 | 6.4 | 0.00 | 2.54 | 2.54 | 75 | 1014.5 |
| 20260905160024 | 28 | 138 | 0.0 | 3.2 | 0.00 | 2.54 | 2.54 | 79 | 1014.6 |
| 20260905154520 | 27 | 243 | 0.0 | 1.6 | 0.00 | 2.54 | 2.54 | 78 | 1014.6 |
| 20260905153016 | 26 | 246 | 0.0 | 3.2 | 0.00 | 2.54 | 2.54 | 85 | 1014.5 |
| 20260905151513 | 25 | 166 | 0.0 | 4.8 | 0.00 | 2.54 | 2.54 | 85 | 1014.7 |
| 20260905150011 | 25 | 126 | 0.0 | 3.2 | 0.00 | 2.54 | 2.54 | 87 | 1014.6 |
| 20260905144511 | 23 | 219 | 0.0 | 4.8 | 0.00 | 2.54 | 2.54 | 88 | 1014.9 |
| 20260905143018 | 23 | 249 | 0.0 | 3.2 | 0.00 | 2.54 | 2.54 | 90 | 1015.0 |
| 20260905141505 | 22 | 162 | 0.0 | 4.8 | 0.00 | 2.54 | 2.54 | 91 | 1015.5 |
| 20260905140005 | 22 | 233 | 0.0 | 3.2 | 0.00 | 2.54 | 2.54 | 91 | 1015.4 |
| 20260905134509 | 21 | 262 | 0.0 | 1.6 | 0.00 | 2.54 | 2.54 | 92 | 1015.4 |
| 20260905133002 | 22 | 278 | 0.0 | 1.6 | 0.00 | 2.54 | 2.54 | 92 | 1015.7 |
| 20260905131501 | 22 | 282 | 0.0 | 0.0 | 0.00 | 2.54 | 2.54 | 92 | 1015.9 |
| 20260905130001 | 21 | 209 | 0.0 | 1.6 | 0.03 | 2.54 | 2.54 | 92 | 1016.2 |
| 20260905124559 | 21 | 270 | 0.0 | 3.2 | 0.53 | 2.54 | 2.54 | 92 | 1015.8 |
| 20260905123058 | 22 | 278 | 0.0 | 3.2 | 0.84 | 2.54 | 2.54 | 92 | 1015.7 |
| 20260905121555 | 22 | 212 | 0.0 | 4.8 | 0.84 | 2.54 | 2.54 | 92 | 1015.6 |
| 20260905120105 | 22 | 121 | 0.0 | 1.6 | 0.81 | 2.51 | 2.51 | 92 | 1014.1 |
| 20260905114552 | 22 | 298 | 0.0 | 3.2 | 0.25 | 1.96 | 1.96 | 92 | 1014.7 |
| 20260905113051 | 22 | 154 | 0.0 | 1.6 | 0.00 | 1.70 | 1.70 | 92 | 1014.7 |
| 20260905111607 | 22 | 224 | 0.0 | 0.0 | 0.00 | 1.70 | 1.70 | 92 | 1014.5 |